This demonstration page uses our WeatherBlox Daily Observations layout. Learn more.

Left ArrowRight Arrow

34.74481, -87.66753

Hourly Observations for October 17, 2021

Temp ( °F °C ) Dew Point ( °F °C ) Humidity (%) Winds ( mph kmh ) Pressure ( in mb ) Visibility ( mi km ) Precip ( " mm )
12:53 am 00:53 Clear 51 10.6 42 5.6 71 71 N N/A 30.21 1023 10 16 N/A
1:53 am 01:53 Clear 54 12.2 41 5 62 62 N 3 6 30.22 1023 10 16 N/A
2:53 am 02:53 Clear 54 12.2 41 5 62 62 N 5 7 30.22 1023 10 16 N/A
3:53 am 03:53 Clear 53 11.7 41 5 64 64 N 3 6 30.23 1024 10 16 N/A
4:53 am 04:53 Clear 51 10.6 41 5 69 69 N N/A 30.23 1024 10 16 N/A
5:53 am 05:53 Clear 46 7.8 41 5 83 83 N N/A 30.24 1024 10 16 N/A
6:53 am 06:53 Clear 46 7.8 40 4.4 79 79 N N/A 30.24 1024 10 16 N/A
7:53 am 07:53 Sunny 48 8.9 44 6.7 86 86 N N/A 30.26 1025 10 16 N/A
8:53 am 08:53 Sunny 57 13.9 45 7.2 64 64 VRB 3 6 30.27 1025 10 16 N/A
9:53 am 09:53 Sunny 62 16.7 42 5.6 48 48 NNE 6 9 30.27 1025 10 16 N/A
10:53 am 10:53 Sunny 65 18.3 38 3.3 37 37 N 7 11 30.27 1025 10 16 N/A
11:53 am 11:53 Sunny 67 19.4 39 3.9 36 36 NNW 10 17 30.27 1025 10 16 N/A
12:53 pm 12:53 Sunny 68 20 37 2.8 32 32 NE 8 13 30.24 1024 10 16 N/A
1:53 pm 13:53 Sunny 70 21.1 37 2.8 30 30 NNE 7 11 30.22 1023 10 16 N/A
2:53 pm 14:53 Sunny 70 21.1 36 2.2 29 29 NNE 8 13 30.21 1023 10 16 N/A
3:53 pm 15:53 Sunny 70 21.1 36 2.2 29 29 VRB 5 7 30.19 1022 10 16 N/A
4:53 pm 16:53 Sunny 70 21.1 37 2.8 30 30 VRB 5 7 30.19 1022 10 16 N/A
5:53 pm 17:53 Sunny 66 18.9 40 4.4 39 39 NNW 3 6 30.19 1022 10 16 N/A
6:53 pm 18:53 Clear 59 15 42 5.6 54 54 N N/A 30.19 1022 10 16 N/A
7:53 pm 19:53 Clear 54 12.2 45 7.2 72 72 N N/A 30.21 1023 10 16 N/A
8:53 pm 20:53 Clear 54 12.2 44 6.7 69 69 N N/A 30.22 1023 10 16 N/A
9:53 pm 21:53 Clear 52 11.1 44 6.7 75 75 N N/A 30.24 1024 10 16 N/A
10:53 pm 22:53 Clear 51 10.6 45 7.2 80 80 N N/A 30.23 1024 10 16 N/A
11:53 pm 23:53 Clear 49 9.4 44 6.7 83 83 N N/A 30.22 1023 10 16 N/A

Powered by AerisWeather